Flag for Germany Weather past 2 weeks in Apolda, Thuringia, Germany

Now
52 °F

Overcast.


Feels Like: 48 °F
Forecast: 40 / 47 °F
Wind: 12 mph from West

Location: Erfurt-Bindersleben

Current Time: Mar 29, 2015 at 11:25:53 AM

Latest Report: Mar 29, 2015 at 11:00 AM


Visibility: 19 mi

Pressure: 29.65 "Hg

Humidity: 68%

Dew point: 42 °F

Location of ApoldaLocation

Historic Weather in Apolda — Graph

°F

Apolda temperature yesterday

Maximum temperature yesterday: 51 °F (at 4:00 PM)
Minimum temperature yesterday: 38 °F (at 6:00 AM)
Average temperature yesterday: 44 °F

Past Weeks' High & Low Weather Summary

 TemperatureHumidityPressure
High62 °F (Mar 25, 4:00 PM)100% (Mar 14, 9:00 AM)30.38 "Hg (Mar 14, 9:00 AM)
Low27 °F (Mar 23, 6:00 AM)32% (Mar 20, 3:00 PM)29.62 "Hg (Mar 25, 4:00 PM)
Average41 °F79%30.11 "Hg
* Reported Mar 14 9:00 AM — Mar 29 10:00 AM, Apolda, Weather by CustomWeather, © 2015

Note: Actual official high and low records may vary slightly from our data, if they occured in-between our weather recording intervals... More about our weather records

Advertising

Apolda weather history for previous 24 hours

 ConditionsComfort  
Time TempWeatherWind HumidityBarometerVisibility
10:00 AM
Sun, Mar 29
51 °FOvercast.10 mph77%29.67 "Hg37 mi
9:00 AM51 °FOvercast.12 mph80%29.67 "Hg19 mi
8:00 AM50 °FOvercast.8 mph84%29.68 "Hg19 mi
7:00 AM49 °FLight rain. Overcast.12 mph89%29.70 "Hg19 mi
5:00 AM47 °FOvercast.9 mph89%29.74 "Hg25 mi
4:00 AM47 °FOvercast.9 mph86%29.78 "Hg22 mi
3:00 AM45 °FOvercast.7 mph89%29.81 "Hg19 mi
1:00 AM46 °FOvercast.8 mph87%29.85 "Hg16 mi
12:00 AM45 °FPassing clouds.10 mph86%29.86 "Hg16 mi
11:00 PM
Sat, Mar 28
45 °FOvercast.7 mph84%29.89 "Hg16 mi
10:00 PM44 °FLight rain. Overcast.9 mph84%29.92 "Hg12 mi
9:00 PM44 °FOvercast.6 mph79%29.95 "Hg12 mi
8:00 PM44 °FLight rain. Overcast.6 mph80%29.96 "Hg10 mi
7:00 PM46 °FLight rain. Overcast.7 mph65%29.96 "Hg16 mi
6:00 PM50 °FOvercast.6 mph47%29.97 "Hg25 mi
5:00 PM51 °FOvercast.8 mph44%29.98 "Hg28 mi
4:00 PM51 °FPartly sunny.7 mph42%30.00 "Hg25 mi
3:00 PM51 °FPassing clouds.7 mph43%30.03 "Hg19 mi
2:00 PM50 °FPassing clouds.7 mph45%30.07 "Hg19 mi
1:00 PM49 °FPassing clouds.7 mph48%30.10 "Hg19 mi
12:00 PM46 °FScattered clouds.6 mph46%30.13 "Hg19 mi
11:00 AM45 °FPartly sunny.6 mph52%30.17 "Hg19 mi
Weather by CustomWeather, © 2015

See weather overviewHow to use our weather pages